Hazen, ND

2:32 AM CST on February 08, 2016 (GMT -0600)
Mercer County Regional

Weather History for KHZE - July, 2013

Change the Weather History Date:

Thursday, July 4, 2013

  Actual Average (KN60) Record (KN60)
Temperature  
Mean Temperature 70 °F -  
Max Temperature 84 °F 76 °F 91 °F (2002)
Min Temperature 55 °F 53 °F 46 °F (1997)
Cooling Degree Days 4    
Growing Degree Days 20 (Base 50)    
Moisture  
Dew Point 56 °F    
Average Humidity 61    
Maximum Humidity 94    
Minimum Humidity 29    
Precipitation  
Precipitation 0.00 in - - ()
Sea Level Pressure  
Sea Level Pressure 29.78 in    
Wind  
Wind Speed 10 mph (NW)    
Max Wind Speed 17 mph    
Max Gust Speed 26 mph    
Visibility 10 miles    
Events Thunderstorm    
Averages and records for this station are not official NWS values.
T = Trace of Precipitation, MM = Missing Value Source: NWS Daily Summary

Daily Weather History Graph

Daily Weather History Graph

Search for Another Location

Airport or City:

Trip Planner

Search our weather history database for the weather conditions in past years. The results will help you decide how hot, cold, wet, or windy it might be!

Date:

Astronomy

Jul. 04, 2013 Rise Set
Actual Time 5:56 AM CDT 9:45 PM CDT
Civil Twilight 5:16 AM CDT 10:24 PM CDT
Nautical Twilight 4:22 AM CDT 11:18 PM CDT
Astronomical Twilight 3:02 AM CDT 12:37 AM CDT
Moon 3:20 AM CDT (7/4) 6:46 PM CDT (7/4)
Length of Visible Light 17h 08m
Length of Day
15h 48m
Waning Crescent, 11% of the Moon is Illuminated
Jul 4
Waning Crescent
Jul 8
New
Jul 15
First Quarter
Jul 22
Full
Jul 29
Last Quarter

Hourly Weather History & Observations

Time (CDT) Temp. Heat Index Dew Point Humidity Pressure Visibility Wind Dir Wind Speed Gust Speed Precip Events Conditions
12:15 AM 69.8 °F - 53.6 °F 56% 29.77 in 10.0 mi SSE 13.8 mph 21.9 mph N/A   Clear
12:35 AM 69.8 °F - 53.6 °F 56% 29.77 in 10.0 mi South 15.0 mph 20.7 mph N/A   Clear
12:55 AM 68.0 °F - 53.6 °F 60% 29.76 in 10.0 mi South 15.0 mph 23.0 mph N/A   Clear
1:15 AM 68.0 °F - 53.6 °F 60% 29.76 in 10.0 mi South 16.1 mph 19.6 mph N/A   Clear
1:35 AM 68.0 °F - 53.6 °F 60% 29.75 in 10.0 mi South 17.3 mph 21.9 mph N/A   Clear
1:55 AM 68.0 °F - 53.6 °F 60% 29.74 in 10.0 mi South 16.1 mph 21.9 mph N/A   Clear
2:15 AM 68.0 °F - 53.6 °F 60% 29.74 in 10.0 mi South 17.3 mph - N/A   Clear
2:35 AM 66.2 °F - 53.6 °F 64% 29.74 in 10.0 mi South 16.1 mph - N/A   Clear
2:55 AM 66.2 °F - 53.6 °F 64% 29.74 in 10.0 mi South 10.4 mph 18.4 mph N/A   Clear
3:15 AM 66.2 °F - 53.6 °F 64% 29.73 in 10.0 mi South 3.5 mph - N/A   Clear
3:35 AM 64.4 °F - 53.6 °F 68% 29.73 in 10.0 mi West 3.5 mph - N/A   Clear
3:55 AM 64.4 °F - 53.6 °F 68% 29.72 in 10.0 mi Calm Calm - N/A   Clear
4:15 AM 64.4 °F - 53.6 °F 68% 29.72 in 10.0 mi Calm Calm - N/A   Clear
4:35 AM 59.0 °F - 53.6 °F 82% 29.72 in 10.0 mi Calm Calm - N/A   Clear
4:55 AM 60.8 °F - 53.6 °F 77% 29.72 in 10.0 mi Calm Calm - N/A   Clear
5:15 AM 59.0 °F - 53.6 °F 82% 29.72 in 10.0 mi Calm Calm - N/A   Partly Cloudy
5:35 AM 59.0 °F - 55.4 °F 88% 29.73 in 10.0 mi NW 3.5 mph - N/A   Scattered Clouds
5:55 AM 57.2 °F - 53.6 °F 88% 29.74 in 10.0 mi Calm Calm - N/A   Clear
6:15 AM 55.4 °F - 53.6 °F 94% 29.73 in 10.0 mi SSE 3.5 mph - N/A   Clear
6:35 AM 55.4 °F - 53.6 °F 94% 29.74 in 10.0 mi Calm Calm - N/A   Clear
6:55 AM 57.2 °F - 53.6 °F 88% 29.74 in 10.0 mi Calm Calm - N/A Thunderstorm Partly Cloudy
7:15 AM 57.2 °F - 55.4 °F 94% 29.76 in 5.0 mi Calm Calm - N/A Thunderstorm Mostly Cloudy
7:35 AM 59.0 °F - 57.2 °F 94% 29.76 in 10.0 mi South 4.6 mph - N/A Thunderstorm Thunderstorm
8:15 AM 60.8 °F - 57.2 °F 88% 29.78 in 10.0 mi NE 4.6 mph - N/A Thunderstorm Mostly Cloudy
8:35 AM 60.8 °F - 57.2 °F 88% 29.77 in 10.0 mi NNE 4.6 mph - N/A   Scattered Clouds
8:55 AM 66.2 °F - 57.2 °F 73% 29.77 in 10.0 mi NNE 3.5 mph - N/A   Clear
9:15 AM 68.0 °F - 57.2 °F 68% 29.79 in 10.0 mi Calm Calm - N/A   Partly Cloudy
9:35 AM 68.0 °F - 59.0 °F 73% 29.79 in 10.0 mi NNW 5.8 mph - N/A   Partly Cloudy
9:55 AM 73.4 °F - 62.6 °F 69% 29.79 in 10.0 mi NNW 15.0 mph 18.4 mph N/A   Clear
10:15 AM 71.6 °F - 62.6 °F 73% 29.79 in 10.0 mi North 11.5 mph 16.1 mph N/A   Mostly Cloudy
10:35 AM 73.4 °F - 64.4 °F 73% 29.79 in 10.0 mi NNW 13.8 mph 17.3 mph N/A   Scattered Clouds
10:55 AM 75.2 °F - 64.4 °F 69% 29.79 in 10.0 mi NW 12.7 mph 17.3 mph N/A   Clear
11:15 AM 75.2 °F - 66.2 °F 73% 29.80 in 10.0 mi NNW 6.9 mph - N/A   Clear
11:35 AM 77.0 °F - 66.2 °F 69% 29.80 in 10.0 mi NW 9.2 mph - N/A   Partly Cloudy
11:55 AM 78.8 °F - 66.2 °F 65% 29.80 in 10.0 mi NNW 13.8 mph 18.4 mph N/A   Scattered Clouds
12:15 PM 80.6 °F 81.8 °F 62.6 °F 54% 29.80 in 10.0 mi NNE 11.5 mph - N/A   Partly Cloudy
12:35 PM 80.6 °F 81.8 °F 62.6 °F 54% 29.80 in 10.0 mi North 12.7 mph 17.3 mph N/A   Clear
12:55 PM 82.4 °F 83.4 °F 62.6 °F 51% 29.80 in 10.0 mi NNW 12.7 mph - N/A   Clear
1:15 PM 82.4 °F 83.9 °F 64.4 °F 54% 29.80 in 10.0 mi NNW 8.1 mph - N/A   Clear
1:35 PM 82.4 °F 82.9 °F 60.8 °F 48% 29.80 in 10.0 mi NNW 15.0 mph 18.4 mph N/A   Partly Cloudy
1:55 PM 84.2 °F 83.8 °F 59.0 °F 42% 29.80 in 10.0 mi NW 13.8 mph 20.7 mph N/A   Partly Cloudy
2:15 PM 84.2 °F 83.5 °F 57.2 °F 40% 29.80 in 10.0 mi NNW 10.4 mph 21.9 mph N/A   Partly Cloudy
2:35 PM 84.2 °F 83.5 °F 57.2 °F 40% 29.80 in 10.0 mi NNW 13.8 mph 20.7 mph N/A   Partly Cloudy
2:55 PM 84.2 °F - 51.8 °F 33% 29.80 in 10.0 mi NNW 13.8 mph 24.2 mph N/A   Partly Cloudy
3:15 PM 84.2 °F 82.8 °F 53.6 °F 35% 29.81 in 10.0 mi NW 13.8 mph 24.2 mph N/A   Clear
3:35 PM 84.2 °F - 51.8 °F 33% 29.81 in 10.0 mi NNW 16.1 mph 26.5 mph N/A   Clear
3:55 PM 84.2 °F - 50.0 °F 30% 29.82 in 10.0 mi NNW 16.1 mph 26.5 mph N/A   Clear
4:15 PM 84.2 °F - 50.0 °F 30% 29.81 in 10.0 mi NW 17.3 mph 21.9 mph N/A   Clear
4:35 PM 84.2 °F - 50.0 °F 30% 29.81 in 10.0 mi NNW 17.3 mph 24.2 mph N/A   Clear
4:55 PM 84.2 °F - 48.2 °F 29% 29.81 in 10.0 mi NNW 16.1 mph 24.2 mph N/A   Clear
5:15 PM 84.2 °F - 50.0 °F 30% 29.81 in 10.0 mi NNW 12.7 mph - N/A   Clear
5:35 PM 82.4 °F - 48.2 °F 30% 29.81 in 10.0 mi NNW 16.1 mph 24.2 mph N/A   Clear
5:55 PM 82.4 °F - 50.0 °F 32% 29.80 in 10.0 mi NNW 15.0 mph 19.6 mph N/A   Clear
6:15 PM 82.4 °F - 51.8 °F 35% 29.80 in 10.0 mi NNW 16.1 mph 21.9 mph N/A   Clear
6:35 PM 82.4 °F - 51.8 °F 35% 29.80 in 10.0 mi North 12.7 mph - N/A   Clear
6:55 PM 82.4 °F - 51.8 °F 35% 29.80 in 10.0 mi NNW 12.7 mph - N/A   Clear
7:15 PM 80.6 °F - 51.8 °F 37% 29.80 in 10.0 mi NNW 11.5 mph - N/A   Clear
7:35 PM 80.6 °F - 51.8 °F 37% 29.80 in 10.0 mi NNW 12.7 mph - N/A   Clear
7:55 PM 80.6 °F 80.3 °F 53.6 °F 39% 29.80 in 10.0 mi NW 8.1 mph - N/A   Clear
8:15 PM 78.8 °F - 53.6 °F 42% 29.80 in 10.0 mi NNW 9.2 mph - N/A   Clear
8:35 PM 75.2 °F - 55.4 °F 50% 29.80 in 10.0 mi NNW 5.8 mph - N/A   Clear
8:55 PM 73.4 °F - 57.2 °F 57% 29.80 in 10.0 mi WNW 4.6 mph - N/A   Clear
9:15 PM 73.4 °F - 55.4 °F 53% 29.79 in 10.0 mi NW 3.5 mph - N/A   Clear
9:35 PM 68.0 °F - 57.2 °F 68% 29.79 in 10.0 mi Calm Calm - N/A   Clear
9:55 PM 66.2 °F - 57.2 °F 73% 29.79 in 10.0 mi Calm Calm - N/A   Clear
10:15 PM 64.4 °F - 57.2 °F 77% 29.79 in 10.0 mi South 3.5 mph - N/A   Clear
10:35 PM 62.6 °F - 57.2 °F 82% 29.80 in 10.0 mi Calm Calm - N/A   Clear
10:55 PM 62.6 °F - 57.2 °F 82% 29.80 in 10.0 mi South 3.5 mph - N/A   Clear
11:15 PM 60.8 °F - 55.4 °F 82% 29.81 in 10.0 mi South 3.5 mph - N/A   Clear
11:35 PM 59.0 °F - 55.4 °F 88% 29.82 in 10.0 mi SSW 3.5 mph - N/A   Clear
11:55 PM 59.0 °F - 55.4 °F 88% 29.82 in 10.0 mi SSW 3.5 mph - N/A   Clear